GW1710 Weather Reports


time (UTC)temp
F
wind
direction
speed
knots
gust
knots
rain 1hr
in
rain 24hr
in
rain mn
in
humidity
%
barometer
mb
20260505153053 79 225 2.6 10.4 0.00 0.00 0.00 47 1010.1
20260505152553 78 276 1.7 10.4 0.00 0.00 0.00 48 1010.1
20260505152054 78 270 0.9 11.3 0.00 0.00 0.00 49 1010.2
20260505151552 78 285 2.6 13.9 0.00 0.00 0.00 47 1010.3
20260505151051 78 291 2.6 13.9 0.00 0.00 0.00 48 1010.3
20260505150552 78 259 0.9 12.2 0.00 0.00 0.00 48 1010.3
20260505140552 74 209 0.9 7.0 0.00 0.00 0.00 53 1010.5
20260505140105 74 266 0.9 6.1 0.00 0.00 0.00 55 1010.6
20260505124556 66 151 0.0 7.0 0.00 0.00 0.00 66 1011.4
20260505124054 66 254 0.0 6.1 0.00 0.00 0.00 66 1011.4
20260505123551 65 0 0.9 5.2 0.00 0.00 0.00 67 1011.4
20260505123101 65 182 0.0 2.6 0.00 0.00 0.00 68 1011.4
20260505122551 65 243 0.0 2.6 0.00 0.00 0.00 67 1011.4
20260505122051 64 217 0.0 1.7 0.00 0.00 0.00 69 1011.3
20260505121551 64 191 0.0 1.7 0.00 0.00 0.00 69 1011.3
20260505121052 64 229 0.0 1.7 0.00 0.00 0.00 69 1011.2
20260505120552 63 190 0.0 0.9 0.00 0.00 0.00 69 1011.3
20260505120057 63 0 0.0 0.9 0.00 0.00 0.00 69 1011.2
20260505115551 63 0 0.0 0.9 0.00 0.00 0.00 69 1011.2
20260505115050 62 228 0.0 0.9 0.00 0.00 0.00 71 1011.1
20260505114553 62 0 0.0 0.9 0.00 0.00 0.00 74 1011.0
20260505114052 61 0 0.0 0.9 0.00 0.00 0.00 75 1010.8
20260505113552 60 138 0.0 0.9 0.00 0.00 0.00 76 1010.8
20260505113110 59 0 0.0 0.9 0.00 0.00 0.00 79 1010.8
20260505112553 58 0 0.0 0.9 0.00 0.00 0.00 81 1010.7
20260505112052 57 0 0.0 0.9 0.00 0.00 0.00 82 1010.7
20260505111553 56 0 0.0 0.9 0.00 0.00 0.00 83 1010.7
20260505111051 56 0 0.0 0.9 0.00 0.00 0.00 84 1010.7
20260505110551 55 0 0.0 0.9 0.00 0.00 0.00 84 1010.5
20260505102052 54 0 0.0 0.9 0.00 0.00 0.00 83 1010.3
20260505101550 54 0 0.0 0.9 0.00 0.00 0.00 83 1010.2
20260505101052 54 0 0.0 0.9 0.00 0.00 0.00 83 1009.9
20260505100552 54 0 0.0 0.9 0.00 0.00 0.00 83 1009.9
20260505100052 54 0 0.0 0.9 0.00 0.00 0.00 83 1009.9
20260505095551 54 300 0.0 0.9 0.00 0.00 0.00 83 1009.9
20260505095051 54 0 0.0 0.0 0.00 0.00 0.00 83 1009.9
20260505094550 54 0 0.0 0.9 0.00 0.00 0.00 82 1009.9
20260505094052 54 0 0.0 0.9 0.00 0.00 0.00 83 1009.8
20260505093550 54 0 0.0 0.9 0.00 0.00 0.00 83 1009.8
20260505093052 54 244 0.0 0.9 0.00 0.00 0.00 83 1009.9
20260505092552 54 0 0.0 0.9 0.00 0.00 0.00 83 1009.9
20260505092051 54 0 0.0 0.9 0.00 0.00 0.00 82 1009.8
20260505091611 54 0 0.0 0.9 0.00 0.00 0.00 83 1009.8
20260505091051 55 0 0.0 0.9 0.00 0.00 0.00 82 1009.7
20260505090549 55 0 0.0 0.9 0.00 0.00 0.00 82 1009.7
20260505090052 54 0 0.0 0.9 0.00 0.00 0.00 83 1009.8
20260505085552 53 0 0.0 0.9 0.00 0.00 0.00 84 1009.8
20260505085051 54 0 0.0 0.9 0.00 0.00 0.00 84 1009.8
20260505084552 54 0 0.0 0.9 0.00 0.00 0.00 83 1009.8
20260505084051 54 0 0.0 0.9 0.00 0.00 0.00 83 1009.9
20260505083550 54 0 0.0 0.9 0.00 0.00 0.00 83 1009.8
20260505083056 54 0 0.0 0.9 0.00 0.00 0.00 83 1009.7
20260505082550 54 0 0.0 0.9 0.00 0.00 0.00 83 1009.7
20260505082052 55 0 0.0 0.9 0.00 0.00 0.00 83 1009.7
20260505081602 55 0 0.0 0.0 0.00 0.00 0.00 82 1009.7
20260505081052 55 0 0.0 0.0 0.00 0.00 0.00 82 1009.7
20260505080552 55 0 0.0 0.9 0.00 0.00 0.00 81 1009.7
20260505080110 55 0 0.0 0.9 0.00 0.00 0.00 81 1009.7
20260505075551 55 0 0.0 0.9 0.00 0.00 0.00 81 1009.7
20260505075051 56 0 0.0 0.9 0.00 0.00 0.00 80 1009.6
20260505074553 56 0 0.0 0.9 0.00 0.00 0.00 79 1009.6
20260505074048 56 0 0.0 0.9 0.00 0.00 0.00 79 1009.6
20260505073548 56 0 0.0 0.9 0.00 0.00 0.00 79 1009.6
20260505073054 56 0 0.0 0.9 0.00 0.00 0.00 78 1009.5
20260505072549 57 0 0.0 0.9 0.00 0.00 0.00 78 1009.6
20260505072051 57 0 0.0 0.9 0.00 0.00 0.00 77 1009.4
20260505071557 58 223 0.0 0.9 0.00 0.00 0.00 76 1009.5
20260505071051 58 0 0.0 0.9 0.00 0.00 0.00 75 1009.5
20260505070551 59 0 0.0 0.9 0.00 0.00 0.00 74 1009.6
20260505070052 59 0 0.0 0.9 0.00 0.00 0.00 74 1009.6
20260505065551 59 0 0.0 0.9 0.00 0.00 0.00 72 1009.6
20260505065050 59 0 0.0 0.9 0.00 0.00 0.00 73 1009.6
20260505064551 59 0 0.0 0.9 0.00 0.00 0.00 72 1009.8
20260505064051 59 0 0.0 0.9 0.00 0.00 0.00 73 1009.8
20260505063551 59 0 0.0 0.9 0.00 0.00 0.00 72 1009.9
20260505063114 60 0 0.0 0.9 0.00 0.00 0.00 71 1009.9
20260505062551 60 0 0.0 0.9 0.00 0.00 0.00 71 1009.8
20260505062051 60 0 0.0 0.9 0.00 0.00 0.00 71 1009.9
20260505061618 60 0 0.0 0.0 0.00 0.00 0.00 70 1009.9
20260505061051 61 0 0.0 0.9 0.00 0.00 0.00 69 1009.8
20260505060554 61 0 0.0 0.9 0.00 0.00 0.00 69 1009.9
20260505055551 61 0 0.0 0.9 0.00 0.00 0.00 67 1009.8
20260505055051 62 0 0.0 0.9 0.00 0.00 0.00 67 1009.7
20260505054554 62 0 0.0 0.9 0.00 0.00 0.00 66 1009.8
20260505054050 62 0 0.0 0.9 0.00 0.00 0.00 66 1009.9
20260505053551 62 0 0.0 0.9 0.00 0.00 0.00 67 1009.8
20260505053059 62 0 0.0 0.9 0.00 0.00 0.00 66 1009.9
20260505052551 62 211 0.0 0.9 0.00 0.00 0.00 67 1009.8
20260505052051 62 0 0.0 0.9 0.00 0.00 0.00 67 1009.7
20260505051614 62 0 0.0 0.9 0.00 0.00 0.00 66 1009.7
20260505051052 62 0 0.0 0.9 0.00 0.00 0.00 66 1009.8
20260505050551 62 0 0.0 0.9 0.00 0.00 0.00 66 1009.9
20260505041559 62 243 0.0 1.7 0.00 0.00 0.00 64 1009.7
20260505041050 62 0 0.0 0.9 0.00 0.00 0.00 63 1009.7
20260505040550 63 172 0.0 0.9 0.00 0.00 0.00 63 1009.6
20260505035550 63 234 0.0 1.7 0.00 0.00 0.00 62 1009.6
20260505035051 63 0 0.0 1.7 0.00 0.00 0.00 62 1009.6
20260505034555 63 180 0.0 5.2 0.00 0.00 0.00 62 1009.3
20260505034050 63 187 0.0 5.2 0.00 0.00 0.00 61 1009.3
20260505033551 63 204 0.0 4.3 0.00 0.00 0.00 61 1009.4
20260505033101 64 217 0.0 4.3 0.00 0.00 0.00 60 1009.4
20260505032552 64 0 0.0 4.3 0.00 0.00 0.00 60 1009.3
20260505032051 64 0 0.0 4.3 0.00 0.00 0.00 59 1009.3
20260505031559 64 0 0.0 4.3 0.00 0.00 0.00 60 1009.2
20260505031050 64 0 0.0 3.5 0.00 0.00 0.00 59 1009.2
20260505030551 64 0 0.0 1.7 0.00 0.00 0.00 59 1009.3
20260505030100 64 0 0.0 1.7 0.00 0.00 0.00 59 1009.2
20260505025551 64 156 0.0 0.9 0.00 0.00 0.00 59 1009.3
20260505025051 64 171 0.0 0.9 0.00 0.00 0.00 58 1009.3
20260505024554 64 209 0.0 0.9 0.00 0.00 0.00 58 1009.5
20260505024050 64 0 0.0 1.7 0.00 0.00 0.00 57 1009.4
20260505023551 64 0 0.0 1.7 0.00 0.00 0.00 57 1009.5
20260505023057 65 205 0.0 1.7 0.00 0.00 0.00 57 1009.5
20260505022552 65 0 0.0 4.3 0.00 0.00 0.00 57 1009.5
20260505022051 65 0 0.0 5.2 0.00 0.00 0.00 57 1009.5
20260505021558 65 193 0.9 5.2 0.00 0.00 0.00 56 1009.5
20260505021050 65 0 0.0 0.9 0.00 0.00 0.00 56 1009.4
20260505020551 65 220 0.0 4.3 0.00 0.00 0.00 56 1009.4
20260505015551 65 190 0.0 4.3 0.00 0.00 0.00 54 1009.4
20260505015054 65 207 0.0 3.5 0.00 0.00 0.00 54 1009.6
20260505014556 65 0 0.0 3.5 0.00 0.00 0.00 54 1009.6
20260505014052 65 0 0.0 3.5 0.00 0.00 0.00 54 1009.6
20260505013550 66 0 0.0 1.7 0.00 0.00 0.00 53 1009.6
20260505013102 66 200 0.0 3.5 0.00 0.00 0.00 53 1009.6
20260505012550 66 0 0.0 4.3 0.00 0.00 0.00 52 1009.6
20260505012048 66 0 0.0 4.3 0.00 0.00 0.00 52 1009.4
20260505011555 66 0 0.0 3.5 0.00 0.00 0.00 52 1009.4
20260505011051 66 0 0.0 7.0 0.00 0.00 0.00 52 1009.3
20260505010551 66 212 0.0 9.6 0.00 0.00 0.00 51 1009.1
20260505010109 66 0 0.0 9.6 0.00 0.00 0.00 52 1009.2
20260505005551 66 0 0.0 1.7 0.00 0.00 0.00 52 1009.0
20260505005051 67 0 0.0 2.6 0.00 0.00 0.00 51 1009.1
20260505004551 67 0 0.0 5.2 0.00 0.00 0.00 51 1009.1
20260505004051 67 0 0.0 5.2 0.00 0.00 0.00 51 1009.1
20260505003552 67 213 0.0 1.7 0.00 0.00 0.00 50 1009.1
20260505003101 67 130 0.0 3.5 0.00 0.00 0.00 50 1009.1
20260505002551 68 141 0.0 3.5 0.00 0.00 0.00 50 1009.0
20260505002051 68 0 0.0 3.5 0.00 0.00 0.00 49 1009.0
20260505001555 68 0 0.0 3.5 0.00 0.00 0.00 49 1009.0
20260505001052 68 213 0.0 3.5 0.00 0.00 0.00 49 1009.0
20260505000554 68 0 0.0 5.2 0.00 0.00 0.00 49 1008.8
20260505000058 68 0 0.0 7.0 0.00 0.00 0.00 49 1008.8
20260504235551 69 0 0.0 7.0 0.00 0.00 0.00 48 1008.8
20260504235052 69 159 0.0 6.1 0.00 0.00 0.00 48 1008.8
20260504234552 69 182 0.0 6.1 0.00 0.00 0.00 47 1008.7
20260504234052 70 0 0.0 8.7 0.00 0.00 0.00 47 1008.8
20260504233549 70 208 0.0 8.7 0.00 0.00 0.00 47 1008.7
20260504233105 70 180 1.7 12.2 0.00 0.00 0.00 46 1008.7
20260504232554 70 0 0.0 13.9 0.00 0.00 0.00 46 1008.6
20260504232052 70 189 1.7 13.9 0.00 0.00 0.00 46 1008.6
20260504231558 71 158 0.0 6.1 0.00 0.00 0.00 46 1008.7
20260504231051 71 0 0.9 6.1 0.00 0.00 0.00 46 1008.6
20260504230548 71 0 0.0 5.2 0.00 0.00 0.00 46 1008.6
20260504230057 71 0 0.0 7.8 0.00 0.00 0.00 46 1008.6
20260504225549 71 219 0.0 8.7 0.00 0.00 0.00 46 1008.6
20260504225048 71 197 1.7 8.7 0.00 0.00 0.00 45 1008.7
20260504224551 71 192 0.9 9.6 0.00 0.00 0.00 45 1008.8
20260504224051 72 0 0.9 9.6 0.00 0.00 0.00 44 1008.7
20260504223551 72 208 1.7 7.8 0.00 0.00 0.00 44 1008.7
20260504223056 72 131 0.0 10.4 0.00 0.00 0.00 45 1008.7
20260504222552 72 0 0.0 13.9 0.00 0.00 0.00 44 1008.6
20260504222048 73 225 0.9 13.9 0.00 0.00 0.00 43 1008.8
20260504221555 73 0 0.9 13.0 0.00 0.00 0.00 43 1008.6
20260504221049 73 171 0.0 8.7 0.00 0.00 0.00 42 1008.6
20260504220552 73 238 0.9 8.7 0.00 0.00 0.00 42 1008.6
20260504220056 73 0 1.7 13.0 0.00 0.00 0.00 41 1008.7
20260504215549 73 224 0.9 13.0 0.00 0.00 0.00 41 1008.6
20260504215052 74 205 2.6 13.0 0.00 0.00 0.00 40 1008.8
20260504214556 74 219 1.7 9.6 0.00 0.00 0.00 41 1008.7
20260504214050 74 186 1.7 8.7 0.00 0.00 0.00 40 1008.7
20260504213551 74 242 0.0 8.7 0.00 0.00 0.00 41 1008.7
20260504213058 74 272 0.0 9.6 0.00 0.00 0.00 40 1008.7
20260504212548 74 262 0.9 9.6 0.00 0.00 0.00 40 1008.7
20260504212051 74 169 2.6 10.4 0.00 0.00 0.00 40 1008.7
20260504211552 74 267 0.9 10.4 0.00 0.00 0.00 41 1008.6
20260504211054 74 0 0.9 12.2 0.00 0.00 0.00 41 1008.7
20260504210549 74 0 3.5 12.2 0.00 0.00 0.00 42 1008.7
20260504210106 74 229 0.9 8.7 0.00 0.00 0.00 40 1008.7
20260504205550 74 0 1.7 9.6 0.00 0.00 0.00 39 1008.8
20260504205048 74 0 1.7 9.6 0.00 0.00 0.00 38 1008.8
20260504204602 75 0 0.0 6.1 0.00 0.00 0.00 41 1008.7
20260504204051 74 211 0.9 6.1 0.00 0.00 0.00 40 1008.9
20260504203548 74 269 0.0 11.3 0.00 0.00 0.00 38 1008.9
20260504203105 74 0 0.9 11.3 0.00 0.00 0.00 40 1008.9
20260504202551 74 208 2.6 12.2 0.00 0.00 0.00 40 1008.9
20260504202048 74 277 0.0 12.2 0.00 0.00 0.00 40 1009.1
20260504201557 74 0 0.9 11.3 0.00 0.00 0.00 40 1009.1
20260504201050 74 141 0.9 10.4 0.00 0.00 0.00 40 1009.1
20260504200551 74 0 1.7 10.4 0.00 0.00 0.00 41 1009.3
20260504200057 73 0 1.7 10.4 0.00 0.00 0.00 40 1009.4
20260504195550 74 233 1.7 7.8 0.00 0.00 0.00 41 1009.5
20260504195051 73 0 0.9 11.3 0.00 0.00 0.00 42 1009.5
20260504194600 74 259 0.0 11.3 0.00 0.00 0.00 41 1009.6
20260504194049 73 277 2.6 15.6 0.00 0.00 0.00 42 1009.7
20260504193551 73 252 0.9 16.5 0.00 0.00 0.00 44 1009.8
20260504193053 73 245 2.6 16.5 0.00 0.00 0.00 42 1009.7
20260504192551 73 278 0.9 13.0 0.00 0.00 0.00 41 1009.8
20260504192053 73 331 1.7 13.0 0.00 0.00 0.00 41 1010.0
20260504191551 73 250 1.7 12.2 0.00 0.00 0.00 43 1010.0
20260504191051 73 0 2.6 12.2 0.00 0.00 0.00 41 1010.0
20260504190551 73 201 1.7 13.0 0.00 0.00 0.00 40 1010.1
20260504190121 73 195 2.6 13.0 0.00 0.00 0.00 42 1010.1
20260504185551 73 0 0.9 14.8 0.00 0.00 0.00 41 1010.2
20260504185049 73 0 1.7 14.8 0.00 0.00 0.00 42 1010.2
20260504184552 73 285 1.7 12.2 0.00 0.00 0.00 43 1010.3
20260504184051 72 0 1.7 12.2 0.00 0.00 0.00 44 1010.4
20260504183551 72 180 0.9 11.3 0.00 0.00 0.00 41 1010.5
20260504183052 72 246 1.7 11.3 0.00 0.00 0.00 40 1010.6
20260504182548 72 294 0.9 7.8 0.00 0.00 0.00 41 1010.5
20260504182050 72 0 0.0 7.8 0.00 0.00 0.00 43 1010.7
20260504181550 72 227 0.9 7.8 0.00 0.00 0.00 44 1010.7
20260504181051 72 250 0.0 6.1 0.00 0.00 0.00 41 1010.8
20260504180552 72 290 0.9 6.1 0.00 0.00 0.00 42 1010.8
20260504180054 71 251 0.0 13.0 0.00 0.00 0.00 43 1010.9
20260504175554 71 215 0.9 13.0 0.00 0.00 0.00 40 1011.0
20260504175052 71 238 0.9 12.2 0.00 0.00 0.00 41 1011.1
20260504174555 71 252 0.9 12.2 0.00 0.00 0.00 41 1011.0
20260504174052 71 0 0.9 12.2 0.00 0.00 0.00 42 1011.2
20260504173551 71 215 0.9 10.4 0.00 0.00 0.00 45 1011.3
20260504173051 70 265 0.9 10.4 0.00 0.00 0.00 43 1011.3
20260504172550 70 269 0.9 10.4 0.00 0.00 0.00 42 1011.6
20260504172050 70 294 0.0 7.8 0.00 0.00 0.00 43 1011.6
20260504171553 70 0 0.9 7.8 0.00 0.00 0.00 42 1011.6
20260504171051 70 0 0.9 7.0 0.00 0.00 0.00 43 1011.7
20260504170550 70 0 0.0 13.0 0.00 0.00 0.00 43 1011.8